Location: Orange Harbor Mobile Home Park
(26.6923°N, 81.7937°W)
Time: 07:17:22
(UTC+00:00)

Sich 1 Rocket - Pass Details

Date: 19 September 2020
Orbit: 616 x 653 km, 82.5° (Epoch: 29 October)

Event Time Altitude Azimuth Distance (km) Brightness Sun altitude
Rises 00:06:57 0° 172° (S) 2,895 6.8 -9.6°
Reaches altitude 10° 00:09:13 10° 166° (SSE) 1,997 6.0 -10.1°
Maximum altitude 00:13:29 48° 92° (E) 833 3.8 -11.1°
Drops below altitude 10° 00:17:48 10° 19° (NNE) 2,029 6.1 -12.0°
Sets 00:20:07 0° 14° (NNE) 2,947 7.0 -12.5°
